This demonstration page uses our WeatherBlox Daily Observations layout. Learn more.

Left ArrowRight Arrow

Hourly Observations for November 15, 2019

Temp ( °F °C ) Dew Point ( °F °C ) Humidity (%) Winds ( mph kmh ) Pressure ( in mb ) Visibility ( mi km ) Precip ( " mm )
12:27 am 00:27 Cloudy with Light Rain 42 5.6 41 5 96 96 NNE 5 7 30.25 1024 5 8 0.03 0.76
12:53 am 00:53 Cloudy with Light Rain 43 6.1 41 5 93 93 NNE 3 6 30.22 1023 4 6 0.05 1.27
1:53 am 01:53 Cloudy with Rain 43 6.1 41 5 93 93 NNE 6 9 30.20 1023 5 8 0.08 2.03
2:53 am 02:53 Cloudy with Light Rain 44 6.7 42 5.6 93 93 N 5 7 30.19 1022 7 11 0.04 1.02
3:02 am 03:02 Cloudy with Light Rain 44 6.7 42 5.6 93 93 N 5 7 30.20 1023 9 14 0.00 0.00
3:30 am 03:30 Cloudy with Light Rain 44 6.7 42 5.6 93 93 NNW 5 7 30.20 1023 10 16 0.01 0.25
3:53 am 03:53 Cloudy with Light Rain 44 6.7 41 5 89 89 N 5 7 30.16 1022 10 16 0.01 0.25
4:27 am 04:27 Cloudy with Light Rain 44 6.7 41 5 89 89 NNE 3 6 30.18 1022 10 16 0.00 0.00
4:34 am 04:34 Cloudy with Light Rain 44 6.7 41 5 89 89 N 5 7 30.17 1022 10 16 0.00 0.00
4:41 am 04:41 Cloudy with Light Rain 43 6.1 41 5 93 93 N 3 6 30.17 1022 10 16 0.01 0.25
4:53 am 04:53 Cloudy with Light Rain 44 6.7 42 5.6 93 93 Calm 30.16 1021 10 16 0.01 0.25
5:53 am 05:53 Cloudy with Light Rain 44 6.7 42 5.6 93 93 NNE 3 6 30.15 1021 10 16 0.02 0.51
6:18 am 06:18 Cloudy with Light Rain 44 6.7 42 5.6 93 93 N 3 6 30.17 1022 9 14 0.00 0.00
6:53 am 06:53 Cloudy 44 6.7 42 5.6 93 93 N 5 7 30.15 1021 10 16 0.00 0.00
7:53 am 07:53 Cloudy with Light Rain 43 6.1 42 5.6 97 97 NNW 5 7 30.16 1022 8 13 0.01 0.25
8:53 am 08:53 Cloudy 44 6.7 41 5 89 89 Calm 30.17 1022 8 13 0.00 0.00
9:53 am 09:53 Cloudy with Light Rain 44 6.7 42 5.6 93 93 N 6 9 30.16 1021 4 6 0.00 0.00
10:18 am 10:18 Cloudy with Light Rain 45 7.2 42 5.6 90 90 N 6 9 30.18 1022 3 4 0.01 0.25
10:38 am 10:38 Cloudy with Light Rain 45 7.2 42 5.6 90 90 N 5 7 30.18 1022 4 6 0.02 0.51
10:53 am 10:53 Cloudy with Light Rain 45 7.2 43 6.1 93 93 N 6 9 30.16 1021 3 5 0.02 0.51
11:00 am 11:00 Cloudy with Light Rain 45 7.2 43 6.1 93 93 N 6 9 30.17 1022 2 3 0.01 0.25
11:14 am 11:14 Cloudy with Light Rain 45 7.2 43 6.1 93 93 VRB 5 7 30.17 1022 4 6 0.01 0.25
11:28 am 11:28 Cloudy with Light Rain 45 7.2 43 6.1 93 93 N 5 7 30.16 1021 3 4 0.02 0.51
11:53 am 11:53 Cloudy with Light Rain 46 7.8 44 6.7 93 93 NNW 7 11 30.14 1021 2 3 0.04 1.02
12:32 pm 12:32 Cloudy with Light Rain 47 8.3 45 7.2 93 93 NNW 6 9 30.14 1021 3 5 0.04 1.02
12:53 pm 12:53 Cloudy with Light Rain 47 8.3 44 6.7 90 90 NNW 5 7 30.11 1020 5 8 0.05 1.27
1:15 pm 13:15 Cloudy with Light Rain 47 8.3 45 7.2 93 93 NNW 7 11 30.12 1020 3 5 0.01 0.25
1:41 pm 13:41 Cloudy with Light Rain 46 7.8 44 6.7 93 93 NW 6 9 30.12 1020 5 8 0.02 0.51
1:53 pm 13:53 Cloudy with Light Rain 46 7.8 44 6.7 93 93 NNW 7 11 30.10 1019 4 6 0.02 0.51
2:53 pm 14:53 Cloudy with Light Rain 46 7.8 43 6.1 89 89 NW 10 17 30.10 1019 3 5 0.04 1.02
3:12 pm 15:12 Cloudy with Light Rain 45 7.2 42 5.6 90 90 N 8 13 30.12 1020 4 6 0.02 0.51
3:53 pm 15:53 Cloudy with Light Rain 45 7.2 42 5.6 90 90 NNE 6 9 30.11 1020 6 10 0.06 1.52
4:53 pm 16:53 Cloudy with Light Rain 46 7.8 43 6.1 89 89 N 3 6 30.10 1019 7 11 0.02 0.51
5:53 pm 17:53 Cloudy 46 7.8 42 5.6 86 86 Calm 30.10 1019 10 16 0.00 0.00
6:00 pm 18:00 Cloudy 46 7.8 42 5.6 86 86 Calm 30.11 1020 10 16 0.00 0.00
6:53 pm 18:53 Cloudy 46 7.8 42 5.6 86 86 N 3 6 30.10 1019 10 16 0.00 0.00
7:53 pm 19:53 Mostly Cloudy 46 7.8 41 5 83 83 Calm 30.09 1019 10 16 0.00 0.00
8:53 pm 20:53 Cloudy 46 7.8 41 5 83 83 Calm 30.09 1019 10 16 0.00 0.00
9:53 pm 21:53 Cloudy 46 7.8 42 5.6 86 86 Calm 30.11 1020 10 16 0.00 0.00
10:53 pm 22:53 Cloudy 45 7.2 43 6.1 93 93 Calm 30.10 1019 10 16 0.00 0.00
11:53 pm 23:53 Cloudy 45 7.2 39 3.9 80 80 NW 3 6 30.08 1019 10 16 0.00 0.00

Powered by AerisWeather